User: anonymous   Login
Location: Theodore Roosevelt National Park
(46.9990°N, 103.4631°W)
Time: 21:05:31
(UTC-06:00)
Language:

Cosmos 2219 Rocket - Orbit

View from above orbital plane
View from above orbital plane
View from above satellite
View from above satellite

Ground track
Ground track

The orbit data is extracted from the following two-line orbital elements,

1 22220U 92076B   15143.23590174  .00000262  00000-0  15610-3 0  9993
2 22220 071.0003 210.4188 0013584 335.8476 079.1037 14.16366790163732
Epoch (UTC): 23 May 2015 05:39:41
Eccentricity: 0.0013584
inclination: 71.0003°
perigee height: 828 km
apogee height: 847 km
right ascension of ascending node: 210.4188°
argument of perigee: 335.8476°
revolutions per day: 14.16366790
mean anomaly at epoch: 79.1037°
orbit number at epoch: 16373

The dashed part of the orbit path shows where the satellite is in the earth's shadow,  

DLR